Weather History for KSAC - November, 2012

Change the Weather History Date:

Friday, November 2, 2012

  Actual Average Record
Temperature  
Mean Temperature 60 °F -  
Max Temperature 70 °F 70 °F 84 °F (1966)
Min Temperature 50 °F 46 °F 34 °F (2002)
Degree Days  
Heating Degree Days 5    
Cooling Degree Days 0    
Growing Degree Days 10 (Base 50)    
Moisture  
Dew Point 51 °F    
Average Humidity 74    
Maximum Humidity 96    
Minimum Humidity 52    
Precipitation  
Precipitation 0.00 in 0.05 in 0.70 in (1968)
Month to date precipitation 0.17 0.10  
Year to date precipitation 11.20 13.29  
Since 1 July precipitation 1.34 1.39  
Sea Level Pressure  
Sea Level Pressure 30.04 in    
Wind  
Wind Speed 3 mph (NW)    
Max Wind Speed 9 mph    
Max Gust Speed 13 mph    
Visibility 7 miles    
Events      
T = Trace of Precipitation, MM = Missing Value Source: NWS Daily Summary

Daily Weather History Graph

Daily Weather History Graph

Search for Another Location

Airport or City:

Trip Planner

Search our weather history database for the weather conditions in past years. The results will help you decide how hot, cold, wet, or windy it might be!

Date:

Astronomy

Nov. 02, 2012 Rise Set
Actual Time 7:34 AM PDT 6:04 PM PDT
Civil Twilight 7:06 AM PDT 6:31 PM PDT
Nautical Twilight 6:35 AM PDT 7:03 PM PDT
Astronomical Twilight 6:04 AM PDT 7:34 PM PDT
Moon 8:57 PM PDT (11/2) 10:57 AM PDT (11/2)
Length of Visible Light 11h 25m
Length of Day
10h 30m
Waning Gibbous, 86% of the Moon is Illuminated
Nov 2
Waning Gibbous
Nov 6
Last Quarter
Nov 13
New
Nov 20
First Quarter
Nov 28
Full

Hourly Weather History & Observations

Time (PDT) Temp. Dew Point Humidity Pressure Visibility Wind Dir Wind Speed Gust Speed Precip Events Conditions
12:53 AM 55.0 °F 52.0 °F 89% 30.04 in 8.0 mi WNW 3.5 mph - N/A   Clear
1:53 AM 53.1 °F 51.1 °F 93% 30.04 in 6.0 mi Calm Calm - N/A   Clear
2:53 AM 52.0 °F 50.0 °F 93% 30.04 in 6.0 mi Calm Calm - N/A   Clear
3:53 AM 52.0 °F 50.0 °F 93% 30.04 in 6.0 mi Calm Calm - N/A   Clear
4:18 AM 51.8 °F 48.2 °F 88% 30.04 in 2.0 mi Calm Calm - N/A   Clear
4:27 AM 51.8 °F 50.0 °F 94% 30.04 in 5.0 mi West 3.5 mph - N/A   Clear
4:53 AM 51.1 °F 48.9 °F 92% 30.04 in 5.0 mi Calm Calm - N/A   Clear
5:53 AM 52.0 °F 48.9 °F 89% 30.05 in 5.0 mi WNW 5.8 mph - N/A   Clear
6:53 AM 50.0 °F 48.0 °F 93% 30.05 in 5.0 mi Calm Calm - N/A   Clear
7:53 AM 51.1 °F 48.0 °F 89% 30.05 in 4.0 mi WNW 3.5 mph - N/A   Clear
8:37 AM 51.8 °F 50.0 °F 94% 30.07 in 5.0 mi NW 6.9 mph - N/A   Partly Cloudy
8:53 AM 53.1 °F 50.0 °F 89% 30.07 in 4.0 mi NW 4.6 mph - N/A   Clear
9:53 AM 57.0 °F 52.0 °F 83% 30.09 in 8.0 mi NW 5.8 mph - N/A   Clear
10:53 AM 61.0 °F 52.0 °F 72% 30.08 in 10.0 mi Calm Calm - N/A   Clear
11:53 AM 64.9 °F 53.1 °F 65% 30.07 in 10.0 mi Calm Calm - N/A   Clear
12:53 PM 66.0 °F 53.1 °F 63% 30.05 in 10.0 mi WNW 5.8 mph - N/A   Clear
1:53 PM 68.0 °F 53.1 °F 59% 30.04 in 9.0 mi WNW 9.2 mph - N/A   Clear
2:48 PM 68.0 °F 51.8 °F 56% 30.03 in 2.5 mi NW 8.1 mph - N/A   Haze
2:53 PM 68.0 °F 52.0 °F 56% 30.03 in 10.0 mi NNW 4.6 mph - N/A   Haze
3:03 PM 68.0 °F 51.8 °F 56% 30.03 in 4.0 mi NNW 6.9 mph - N/A   Haze
3:38 PM 69.8 °F 51.8 °F 53% 30.03 in 2.5 mi NNW 4.6 mph - N/A   Haze
3:53 PM 69.1 °F 51.1 °F 53% 30.03 in 2.5 mi NW 6.9 mph - N/A   Haze
4:13 PM 68.0 °F 50.0 °F 52% 30.03 in 10.0 mi West 6.9 mph - N/A   Clear
4:53 PM 66.9 °F 48.9 °F 52% 30.02 in 10.0 mi Calm Calm - N/A   Clear
5:00 PM 66.2 °F 50.0 °F 56% 30.01 in 2.0 mi Calm Calm - N/A   Haze
5:23 PM 66.2 °F 50.0 °F 56% 30.02 in 10.0 mi NW 3.5 mph - N/A   Haze
5:53 PM 64.0 °F 50.0 °F 60% 30.02 in 10.0 mi Calm Calm - N/A   Clear
6:53 PM 59.0 °F 51.1 °F 75% 30.03 in 10.0 mi Calm Calm - N/A   Clear
7:53 PM 55.9 °F 51.1 °F 84% 30.04 in 10.0 mi Calm Calm - N/A   Clear
8:53 PM 57.9 °F 52.0 °F 81% 30.04 in 10.0 mi Calm Calm - N/A   Clear
9:53 PM 57.0 °F 53.1 °F 87% 30.05 in 10.0 mi Calm Calm - N/A   Clear
10:53 PM 57.0 °F 53.1 °F 87% 30.06 in 10.0 mi Calm Calm - N/A   Clear
11:53 PM 54.0 °F 52.0 °F 93% 30.06 in 10.0 mi Calm Calm - N/A   Clear